This is the latest recevied weather packets stored in our database for station/object WB3EGK. If no packets are shown the sender has not sent any weather packets the latest 1 day(s).
| Time | Temp. | Humidity | Pressure | Rain* | Wind** | Luminosity | Snow |
|---|---|---|---|---|---|---|---|
| 1778023504 | 11.11° C | 1% | 1006.1 hPa | 0 mm | - | 10 W/m² | - |
| 1778023201 | 11.11° C | 1% | 1006.2 hPa | 0 mm | - | 8 W/m² | - |
| 1778022898 | 11.11° C | 1% | 1006 hPa | 0 mm | - | 6 W/m² | - |
| 1778021687 | 12.78° C | 1% | 1006.3 hPa | 1.78 mm | - | 1 W/m² | - |
| 1778021383 | 12.78° C | 1% | 1005.7 hPa | 1.78 mm | - | 9 W/m² | - |
| 1778020474 | 12.78° C | 1% | 1005.9 hPa | 0 mm | - | 27 W/m² | - |
| 1778020170 | 12.78° C | 1% | 1005.7 hPa | 0 mm | - | 8 W/m² | - |
| 1778018957 | 13.33° C | 1% | 1006 hPa | 0 mm | - | 12 W/m² | - |
| 1778018654 | 13.33° C | 1% | 1006.1 hPa | 1.78 mm | - | 27 W/m² | - |
| 1778012899 | 16.11° C | 1% | 1005.6 hPa | 0 mm | - | 49 W/m² | - |
| 1778012292 | 16.11° C | 1% | 1005.6 hPa | 0 mm | - | 69 W/m² | - |
| 1778010171 | 17.78° C | 1% | 1005.6 hPa | 0 mm | - | 106 W/m² | - |
| 1778008960 | 17.22° C | 1% | 1005.6 hPa | 0 mm | - | 257 W/m² | - |
| 1778008052 | 17.22° C | 1% | 1005.6 hPa | 0 mm | - | 28 W/m² | - |
| 1778007752 | 17.22° C | 1% | 1005.5 hPa | 0 mm | - | 166 W/m² | - |
| 1778006539 | 18.89° C | 1% | 1005.1 hPa | 0 mm | - | 81 W/m² | - |
| 1778005629 | 19.44° C | 1% | 1005.2 hPa | 0 mm | - | 122 W/m² | - |
| 1778003506 | 19.44° C | 1% | 1005.1 hPa | 0 mm | - | 170 W/m² | - |
| 1778000472 | 19.44° C | 1% | 1005.1 hPa | 0 mm | - | 324 W/m² | - |
| 1777999559 | 18.89° C | 1% | 1005.2 hPa | 0 mm | - | 346 W/m² | - |
| 1777998652 | 20° C | 1% | 1004.8 hPa | 0 mm | - | 309 W/m² | - |
| 1777998350 | 20° C | 1% | 1004.6 hPa | 0 mm | - | 684 W/m² | - |
| 1777997744 | 18.89° C | 1% | 1004.5 hPa | 0 mm | - | 805 W/m² | - |
* Rain latest hour (hover to see other rain measurements)
** Current wind speed in m/s (hover to see current wind gust speed)